Tracking 29892 objects as of 21-Nov-2024
HD Live streaming from Space Station
objects crossing your sky now

THORAD AGENA D DEB

Track THORAD AGENA D DEB now!
10-day predictions


NORAD ID: 4149
Int'l Code: 1969-082T
Perigee: 811.0 km
Apogee: 861.1 km
Inclination: 70.3 °
Period: 101.5 minutes
Semi major axis: 7207 km
RCS: 0.0441 m2 (small)
Launch date: September 30, 1969
Source: United States (US)
Launch site: AIR FORCE WESTERN TEST RANGE (AFWTR)

Note: This is SATELLITE DEBRIS
Your satellite tracking list
Your tracking list is empty




NASA's NSSDC Master Catalog

Two Line Element Set (TLE):
1  4149U 69082T   24326.08408247  .00001318  00000-0  65386-3 0  9997
2  4149  70.3035 115.7998 0034761 152.2939 208.0043 14.18937147837785
Source of the keplerian elements: AFSPC